Regional Weather Roundup
Issued by NWS

Home | Current Version | Previous Version | Graphics & Text | Print | Product List | Glossary Off
Versions: 1 2 3 4 5 6 7 8 9 10 11 12 13 14 15 16 17 18 19 20 21 22 23 24 25 26 27 28 29 30 31 32 33 34 35 36 37 38 39 40 41 42 43 44 45 46 47 48 49 50

000
ASUS43 KMPX 210610
RWRMN
WEATHER ROUNDUP FOR MINNESOTA
NATIONAL WEATHER SERVICE TWIN CITIES/CHANHASSEN MN
100 AM CDT THU AUG 21 2014


NOTE: "FAIR" INDICATES FEW OR NO CLOUDS BELOW 12,000 FEET WITH NO
SIGNIFICANT WEATHER AND/OR OBSTRUCTIONS TO VISIBILITY. N/A MEANS
CURRENT SKY AND/OR WEATHER CONDITIONS ARE NOT AVAILABLE.

MNZ060>063-068>070-210700-
   Twin Cities Metro

CITY           SKY/WX    TMP DP  RH WIND       PRES   REMARKS
TWIN CITIES    MOCLDY    72  65  78 E13       29.87S
6HR MIN TEMP:  72; 6HR MAX TEMP:  80;

ST PAUL        FAIR      71  64  78 SE9       29.88S
CRYSTAL        FAIR      73  63  70 E6        29.86S
BLAINE         FAIR      72  64  78 E7        29.87F
LAKEVILLE      MOCLDY    66  66 100 E5        29.88R
EDEN PRAIRIE   MOCLDY    73  66  78 E12       29.85F
6HR MIN TEMP:  73; 6HR MAX TEMP:  80;

SOUTH ST PAUL  FAIR      71  64  76 SE5       29.88S
LAKE ELMO      FAIR      68  63  83 E3        29.90S
$$
MNZ001>005-007-008-013>017-022>024-027-028-210700-
   Northwest Minnesota

CITY           SKY/WX    TMP DP  RH WIND       PRES   REMARKS
BEMIDJI        FAIR      64  62  92 SE7       29.88F
HALLOCK        FAIR      70  64  83 SE10      29.78F
ROSEAU         FAIR      66  61  82 SE8       29.85F
WARROAD        FAIR      66  63  88 SE9       29.87S
THIEF RVR FALL FAIR      64  63  94 E7        29.84F
CROOKSTON      FAIR      70  66  88 SE10      29.80F
FOSSTON        FAIR      64  61  88 E6        29.84F
DETROIT LAKES  FAIR      68  63  83 SE10      29.81F
MOORHEAD       FAIR      73  72  94 E7        29.76F
PARK RAPIDS    FAIR      67  63  87 E9        29.85F
MAHNOMEN       FAIR      68  64  86 SE10      29.80F
$$
MNZ006-009>011-018-025>026-210700-
   North Central Minnesota

CITY           SKY/WX    TMP DP  RH WIND       PRES   REMARKS
BAUDETTE       FAIR      62  59  90 CALM      29.89S
FLAG ISLAND    FAIR      72  64  78 S9        29.87R
INTL FALLS     FAIR      57  56  96 SE3       29.91R
6HR MIN TEMP:  54; 6HR MAX TEMP:  73;

WASKISH        FAIR      64  63  94 CALM      29.89R
BIG FORK       CLOUDY    63  59  88 SE3       29.92S
LONGVILLE      FAIR      63  61  94 CALM      29.89F
GRAND RAPIDS   FAIR      61  57  88 SE5       29.92F
CRANE LAKE     FAIR      54  54 100 CALM      29.95R FOG
ORR            FAIR      59  55  88 SE3       29.92R
COOK           FAIR      59  57  94 CALM      29.95R
WALKER         FAIR      65  62  91 E5        29.88F
$$
MNZ012-019>021-037-210700-
   Northeast Minnesota

CITY           SKY/WX    TMP DP  RH WIND       PRES   REMARKS
DULUTH         CLOUDY    62  60  93 E7        29.95R FOG
6HR MIN TEMP:  60; 6HR MAX TEMP:  65;

ELY            FAIR      57  55  94 CALM      29.95S
HIBBING        FAIR      55  54  96 SE3       29.95R FOG
EVELETH        FAIR      52  52 100 CALM      29.96S FOG
DULUTH HARBOR  CLOUDY    63  61  94 NE9       29.94S
TWO HARBORS    CLOUDY    61  55  82 E6        29.94S
SILVER BAY     CLOUDY    59  59 100 CALM      29.94F
GRAND MARAIS     N/A     61  59  93 CALM      29.96R
G MARAIS ARPRT CLOUDY    57  55  94 CALM      29.99R FOG
$$
MNZ029>031-032-039>041-046>048-054>057-064-210700-
   West Central Minnesota

CITY           SKY/WX    TMP DP  RH WIND       PRES   REMARKS
FERGUS FALLS   CLOUDY    73  63  68 SE12G17   29.77S
WHEATON        TSTM      68  66  94 SE15      29.76F
MORRIS         TSTM      73  68  83 E10G17    29.77R
ALEXANDRIA     MOCLDY    69  65  86 SE16      29.80F
ELBOW LAKE     TSTM      69  67  94 SE12      29.79R
WADENA         FAIR      66  63  88 E9        29.83F
GLENWOOD       FAIR      70  66  88 E14       29.80F
APPLETON       CLOUDY    73  68  83 SE17      29.72F
BENSON         MOCLDY    73  68  83 SE10G20   29.74F
ORTONVILLE     TSTM      72  68  88 N10G20    29.76R
MADISON        MOCLDY    73  72  94 SE10      29.74R
WILLMAR        FAIR      73  66  78 SE14      29.79F
$$
MNZ033>034-036-042>043-049>051-058-059-210700-
   Central Minnesota

CITY           SKY/WX    TMP DP  RH WIND       PRES   REMARKS
ST CLOUD       FAIR      70  64  81 E9        29.83F
6HR MIN TEMP:  70; 6HR MAX TEMP:  78;

SAUK CENTRE    MOCLDY    68  65  88 E8        29.82F
PAYNESVILLE    FAIR      68  65  89 E12       29.82F
AITKIN         FAIR      66  61  82 E3        29.89S
PINE RIVER     FAIR      64  63  94 E8        29.91F
BRAINERD       FAIR      66  62  87 VRB6      29.87F
STAPLES        FAIR      66  61  82 E7        29.85F
LONG PRAIRIE   FAIR      64  63  94 E8        29.84F
LITTLE FALLS   FAIR      66  61  82 E9        29.84F
LITCHFIELD     FAIR      73  72  94 E12       29.82F
BUFFALO        FAIR      71  64  80 E6        29.84F
MAPLE LAKE     FAIR      71  67  86 E9        29.84F
$$
MNZ037-044-045-052-053-210700-
   East Central Minnesota

CITY           SKY/WX    TMP DP  RH WIND       PRES   REMARKS
PRINCETON      FAIR      68  64  88 E7        29.86F
MORA           FAIR      63  61  94 E3        29.91S
CAMBRIDGE      FAIR      70  61  73 CALM      29.86F
RUSH CITY      FAIR      65  62  91 E3        29.89F
MOOSE LAKE     FAIR      59  59 100 NE3       29.91S FOG
HINCKLEY       CLOUDY    63  63 100 E5        29.91S
CLOQUET        FOG       61  59  94 E3        29.94S VSB 3/4
MCGREGOR       FAIR      63  61  94 E6        29.91F
$$
MNZ071>073-080-081-089-090-097-098-210700-
   Southwest Minnesota

CITY           SKY/WX    TMP DP  RH WIND       PRES   REMARKS
MONTEVIDEO     MOCLDY    72  70  94 S14       29.73F
GRANITE FALLS  MOCLDY    72  68  89 E9G18     29.76F
CANBY          CLOUDY    71  69  95 SE7       29.73F
MARSHALL       FAIR      72  66  83 S15       29.76R
REDWOOD FALLS  FAIR      72  67  84 SE13G22   29.76F
OLIVIA         CLOUDY    73  68  83 SE10      29.78F
PIPESTONE      CLOUDY    75  72  88 SE5       29.76F
WINDOM         FAIR      70  68  94 E9        29.80F
WORTHINGTON    FAIR      70  12  11 SE9       29.79F
JACKSON        FAIR      70  68  94 SE9       29.82S
TRACY          FAIR      71  69  94 SE7       29.77F
SLAYTON        TSTM      70  70  99 SE16G37   29.77F VSB 3/4
$$
MNZ065>067-074>077-082>085-091>093-210700-
   South Central Minnesota

CITY           SKY/WX    TMP DP  RH WIND       PRES   REMARKS
MANKATO        FAIR      72  64  78 SE12      29.83F
NEW ULM        FAIR      72  70  94 SE12      29.80F
ST JAMES       FAIR      72  66  83 E10       29.81F
FAIRMONT       FAIR      70  64  83 MISG      29.82F
GLENCOE        FAIR      73  67  82 E10       29.82F
FARIBAULT      CLOUDY    73  66  78 SE6       29.87F
OWATONNA       FAIR      72  64  78 SE7       29.88S
WASECA         FAIR      68  63  83 E8        29.88F
ALBERT LEA     FAIR      70  66  88 SE8       29.88F
$$
MNZ078>079-086>088-094>096-210700-
   Southeast Minnesota

CITY           SKY/WX    TMP DP  RH WIND       PRES   REMARKS
ROCHESTER      MOCLDY    69  66  90 S7        29.92R
6HR MIN TEMP:  69; 6HR MAX TEMP:  79; 6HR PCP: TRACE;

RED WING       FAIR      72  64  78 E7        29.89R
STANTON        CLOUDY    72  67  84 E3        29.87R
DODGE CENTER   FAIR      70  66  88 S7        29.90S
WINONA         MOCLDY    72  66  83 SE7       29.90R
AUSTIN         FAIR      68  66  94 CALM      29.90S
PRESTON        FAIR      68  68 100 S6        29.93R
$$
ABBREVIATIONS USED IN REMARKS
   TC - TEMPERATURES IN CELSIUS
  WCI - WIND CHILL INDEX
   HX - HEAT INDEX
  VSB - VISIBILITY
$$



USA.gov is the U.S. government's official web portal to all federal, state and local government web resources and services.